Weather History for Wenatchee, WA

Change the Weather History Date:

Saturday, March 17, 2012

  Actual Average Record
Temperature  
Mean Temperature 41 °F 39 °F  
Max Temperature 49 °F 49 °F 70 °F (1972)
Min Temperature 32 °F 30 °F 23 °F (1965)
Degree Days  
Heating Degree Days 24 26  
Month to date heating degree days 403 479  
Since 1 July heating degree days 4841 5678  
Moisture  
Dew Point 31 °F    
Average Humidity 70    
Maximum Humidity 100    
Minimum Humidity 39    
Precipitation  
Precipitation 0.41 in 0.06 in 0.41 in (2012)
Month to date precipitation 0.52 0.92  
Year to date precipitation 2.17 4.25  
Sea Level Pressure  
Sea Level Pressure 29.40 in    
Wind  
Wind Speed 7 mph (WNW)    
Max Wind Speed 13 mph    
Max Gust Speed 20 mph    
Visibility 6 miles    
Events Fog , Rain , Snow    
T = Trace of Precipitation, MM = Missing Value Source: NWS Daily Summary

Daily Weather History Graph

Daily Weather History Graph

Search for Another Location

Airport:

Trip Planner

Search our weather history database for the weather conditions in past years. The results will help you decide how hot, cold, wet, or windy it might be!

Date:

Astronomy

Mar. 17, 2012 Rise Set
Actual Time 7:08 AM PDT 7:10 PM PDT
Civil Twilight 6:38 AM PDT 7:40 PM PDT
Nautical Twilight 6:02 AM PDT 8:16 PM PDT
Astronomical Twilight 5:25 AM PDT 8:53 PM PDT
Moon 4:31 AM PDT (3/17) 2:22 PM PDT (3/17)
Length of Visible Light 13h 02m
Length of Day
12h 01m
Waning Crescent, 22% of the Moon is Illuminated
Mar 17
Waning Crescent
Mar 22
New
Mar 30
First Quarter
Apr 6
Full
Apr 13
Last Quarter

Hourly Weather History & Observations

Time (PDT) Temp. Windchill Dew Point Humidity Pressure Visibility Wind Dir Wind Speed Gust Speed Precip Events Conditions
12:55 AM 42.1 °F 36.6 °F 27.0 °F 55% 29.41 in 10.0 mi WNW 9.2 mph - N/A   Overcast
1:55 AM 42.1 °F 38.4 °F 28.0 °F 58% 29.38 in 10.0 mi WNW 5.8 mph - 0.00 in Rain Light Rain
2:09 AM 41.0 °F 36.4 °F 32.0 °F 70% 29.37 in 4.0 mi Variable 6.9 mph 19.6 mph 0.02 in Rain Rain
2:28 AM 39.2 °F - 33.8 °F 81% 29.36 in 7.0 mi North - - 0.04 in Rain Light Rain
2:35 AM 39.2 °F - 32.0 °F 75% 29.36 in 9.0 mi Calm Calm - 0.05 in Rain Light Rain
2:55 AM 37.9 °F - 33.1 °F 83% 29.37 in 5.0 mi Calm Calm - 0.08 in Rain Rain
3:52 AM 33.8 °F 30.8 °F 32.0 °F 93% 29.33 in 3.0 mi North 3.5 mph - 0.12 in Rain Rain
3:55 AM 34.0 °F 31.0 °F 32.0 °F 92% 29.34 in 3.0 mi North 3.5 mph - 0.12 in Rain Rain
4:12 AM 33.8 °F - 32.0 °F 93% 29.33 in 2.5 mi Calm Calm - 0.03 in Snow Light Snow
4:25 AM 33.8 °F 28.6 °F 32.0 °F 93% 29.34 in 3.0 mi WSW 5.8 mph - 0.05 in Snow Light Snow
4:38 AM 33.8 °F 26.4 °F 30.2 °F 87% 29.34 in 1.8 mi West 9.2 mph - 0.08 in Snow Light Snow
4:55 AM 33.1 °F 24.4 °F 30.9 °F 92% 29.35 in 0.8 mi NW 11.5 mph - 0.13 in Snow Light Snow
5:07 AM 33.8 °F 25.8 °F 30.2 °F 87% 29.33 in 1.0 mi NW 10.4 mph - 0.03 in Snow Light Snow
5:18 AM 33.8 °F 27.0 °F 30.2 °F 87% 29.34 in 3.0 mi West 8.1 mph - 0.05 in Snow Light Snow
5:29 AM 33.8 °F 25.8 °F 30.2 °F 87% 29.34 in 5.0 mi West 10.4 mph - 0.06 in Snow Light Snow
5:37 AM 32.0 °F 24.2 °F 30.2 °F 93% 29.34 in 1.8 mi West 9.2 mph - 0.07 in Snow Light Snow
5:45 AM 32.0 °F 24.2 °F 30.2 °F 93% 29.33 in 3.0 mi WSW 9.2 mph - 0.08 in Snow Light Snow
5:55 AM 33.1 °F 24.9 °F 30.9 °F 92% 29.34 in 8.0 mi West 10.4 mph - 0.08 in Snow Light Snow
6:01 AM 32.0 °F 23.6 °F 30.2 °F 93% 29.32 in 1.8 mi West 10.4 mph - 0.00 in Rain Light Rain
6:07 AM 32.0 °F 23.6 °F 30.2 °F 93% 29.32 in 0.5 mi West 10.4 mph - 0.00 in Fog , Rain Light Freezing Rain
6:18 AM 32.0 °F 24.2 °F 30.2 °F 93% 29.31 in 0.2 mi WSW 9.2 mph - 0.00 in Fog , Rain Light Freezing Rain
6:28 AM 32.0 °F 24.8 °F 30.2 °F 93% 29.33 in 0.2 mi WSW 8.1 mph - 0.00 in Fog , Rain Light Freezing Rain
6:35 AM 32.0 °F 27.5 °F 30.2 °F 93% 29.34 in 0.5 mi WNW 4.6 mph - 0.00 in Fog , Rain Light Freezing Rain
6:55 AM 32.0 °F 27.5 °F 32.0 °F 100% 29.37 in 1.0 mi North 4.6 mph - 0.00 in Rain Light Freezing Rain
6:59 AM 33.8 °F - 32.0 °F 93% 29.35 in 2.5 mi Calm Calm - 0.00 in   Overcast
7:03 AM 33.8 °F 29.6 °F 32.0 °F 93% 29.35 in 9.0 mi NNW 4.6 mph - 0.00 in   Overcast
7:55 AM 32.0 °F 28.7 °F 30.9 °F 96% 29.38 in 4.0 mi North 3.5 mph - 0.00 in   Mostly Cloudy
8:00 AM 33.8 °F 29.6 °F 30.2 °F 87% 29.36 in 1.8 mi NNE 4.6 mph - N/A   Mostly Cloudy
8:07 AM 33.8 °F 30.8 °F 32.0 °F 93% 29.37 in 1.0 mi ENE 3.5 mph - N/A   Overcast
8:15 AM 33.8 °F 30.8 °F 30.2 °F 87% 29.37 in 3.0 mi ENE 3.5 mph - N/A   Overcast
8:45 AM 33.8 °F - 30.2 °F 87% 29.38 in 2.5 mi Calm Calm - N/A   Overcast
8:47 AM 33.8 °F - 30.2 °F 87% 29.37 in 3.0 mi Calm Calm - N/A   Overcast
8:53 AM 33.8 °F 30.8 °F 30.2 °F 87% 29.37 in 1.8 mi East 3.5 mph - N/A   Overcast
8:55 AM 33.1 °F - 30.9 °F 92% 29.39 in 1.8 mi Calm Calm - N/A   Overcast
9:02 AM 33.8 °F - 30.2 °F 87% 29.37 in 3.0 mi Calm Calm - N/A   Overcast
9:55 AM 34.0 °F - 32.0 °F 92% 29.44 in 10.0 mi Calm Calm - N/A   Overcast
10:02 AM 35.6 °F - 32.0 °F 87% 29.42 in 10.0 mi Calm Calm - N/A   Overcast
10:38 AM 35.6 °F 32.8 °F 33.8 °F 93% 29.42 in 10.0 mi South 3.5 mph - 0.00 in Rain Light Rain
10:55 AM 36.0 °F - 34.0 °F 93% 29.44 in 10.0 mi Calm Calm - 0.00 in   Overcast
11:36 AM 41.0 °F - 35.6 °F 81% 29.42 in 10.0 mi Calm Calm - N/A   Scattered Clouds
11:55 AM 39.9 °F 33.9 °F 36.0 °F 86% 29.44 in 10.0 mi WNW 9.2 mph - N/A   Mostly Cloudy
12:11 PM 41.0 °F 35.2 °F 35.6 °F 81% 29.43 in 10.0 mi NW 9.2 mph - N/A   Mostly Cloudy
12:25 PM 41.0 °F 36.4 °F 35.6 °F 81% 29.44 in 10.0 mi NW 6.9 mph - N/A   Overcast
12:44 PM 42.8 °F 37.5 °F 35.6 °F 76% 29.44 in 10.0 mi NW 9.2 mph - N/A   Overcast
12:55 PM 42.1 °F 36.6 °F 35.1 °F 76% 29.46 in 10.0 mi NW 9.2 mph - N/A   Mostly Cloudy
1:55 PM 45.0 °F 40.6 °F 35.1 °F 68% 29.48 in 10.0 mi West 8.1 mph - N/A   Mostly Cloudy
2:55 PM 46.0 °F 40.6 °F 33.1 °F 61% 29.48 in 10.0 mi NW 11.5 mph - N/A   Overcast
3:55 PM 46.9 °F - 28.9 °F 50% 29.50 in 10.0 mi WNW 5.8 mph - 0.00 in   Partly Cloudy
4:55 PM 48.9 °F - 25.0 °F 39% 29.51 in 10.0 mi WNW 12.7 mph - N/A   Clear
5:55 PM 48.0 °F - 24.1 °F 39% 29.53 in 10.0 mi WNW 12.7 mph - N/A   Clear
6:55 PM 45.0 °F 40.1 °F 21.9 °F 40% 29.55 in 10.0 mi West 9.2 mph - N/A   Clear
7:55 PM 42.1 °F 38.4 °F 21.9 °F 45% 29.59 in 10.0 mi WNW 5.8 mph - N/A   Clear
8:55 PM 37.9 °F 32.7 °F 21.0 °F 51% 29.60 in 10.0 mi North 6.9 mph - N/A   Clear
9:55 PM 37.9 °F 30.5 °F 21.0 °F 51% 29.60 in 10.0 mi NW 11.5 mph - N/A   Clear
10:55 PM 36.0 °F 30.3 °F 21.9 °F 57% 29.61 in 10.0 mi NNW 6.9 mph - N/A   Clear